Regional Weather Roundup
Issued by NWS Memphis, TN

Home | Current Version | Previous Version | Text Only | Print | Product List | Glossary On
Versions: 1 2 3 4 5 6 7 8 9 10 11 12 13 14 15 16 17 18 19 20 21 22 23 24 25 26 27 28 29 30 31 32 33 34 35 36 37 38 39 40 41 42 43 44 45 46 47 48 49 50
000
ASUS44 KMEG 280410
RWRMEG
MEMPHIS CWA HOURLY WEATHER ROUNDUP
NATIONAL WEATHER SERVICE MEMPHIS TN
1100 PM CDT SUN JUL 27 2014

...WEST TENNESSEE...

CITY           SKY/WX    TMP DP  RH WIND       PRES   REMARKS
MEMPHIS INTL   PTCLDY    85  77  77 W3        29.95S HX  95
NWS MEMPHIS      N/A     84 N/A N/A MISG        N/A
JACKSON        CLEAR     82  76  81 W7        29.93S
LEXINGTON      MOCLDY    81  77  89 W3        29.92S
SAVANNAH       PTCLDY    82  81  97 SW5       29.94S HX  94
DYERSBURG      CLEAR     81  70  69 W5        29.94R
UNION CITY     CLEAR     79  72  78 W6        29.91S
PARIS          PTCLDY    77  73  87 W3        29.92S


...EASTERN ARKANSAS...

CITY           SKY/WX    TMP DP  RH WIND       PRES   REMARKS
JONESBORO      CLEAR     82  75  79 NW6       29.96R
WEST MEMPHIS   PTCLDY    83  80  91 VRB3      29.94R HX  95
BATESVILLE     PTCLDY    79  73  83 W3        29.99R
NEWPORT        CLEAR     81  76  84 N14       29.98R
WALNUT RIDGE   CLEAR     79  66  65 NW9       29.96R
BLYTHEVILLE    PTCLDY    81  77  88 NW9       29.94R
SEARCY         MOCLDY    82  77  85 NW5       29.99R HX  90
STUTTGART      MOCLDY    84  77  79 SW7       29.98S HX  94
PINE BLUFF     LGT RAIN  84  76  76 SW6       29.98S HX  93
MONTICELLO     PTCLDY    84  75  74 SW6       29.99S HX  92


...NORTH MISSISSIPPI...

CITY           SKY/WX    TMP DP  RH WIND       PRES   REMARKS
TUPELO         PTCLDY    82  76  81 W5        29.96S
OLIVE BRANCH   CLEAR     82  82 100 SW6       29.96R HX  97
CLARKSDALE     PTCLDY    82  79  89 CALM      29.97S HX  93
CORINTH        CLEAR     82  75  78 SW6       29.94S
GRENADA        PTCLDY    81  75  83 CALM      29.98S
GREENWOOD      PTCLDY    78  76  93 S5        29.98S
COLUMBUS       PTCLDY    80  75  85 SW7       29.98S
STARKVILLE     FAIR      79  73  83 CALM      29.99S
GOLDEN TRIANGL PTCLDY    81  73  78 W3        29.99F


...SOUTHEAST MISSOURI...

CITY           SKY/WX    TMP DP  RH WIND       PRES   REMARKS
WEST PLAINS    CLEAR     75  58  55 NW6       30.05R
POPLAR BLUFF   CLEAR     77  61  57 NW6       29.95R
CAPE GIRARDEAU CLEAR     73  63  70 CALM      29.93R


...NORTHWEST ALABAMA...

CITY           SKY/WX    TMP DP  RH WIND       PRES   REMARKS
MUSCLE SHOALS  MOCLDY    83  75  77 W12       29.96S HX  90


...MIDDLE TENNESSEE...

CITY           SKY/WX    TMP DP  RH WIND       PRES   REMARKS
NASHVILLE      CLOUDY    75  73  93 CALM      29.91R
CLARKSVILLE    CLEAR     82  63  52 NW14      29.90R
DICKSON        PTCLDY    73  70  88 W5        29.92S
COLUMBIA       CLEAR     82  79  89 W8        29.91S HX  93
LAWRENCEBURG   PTCLDY    81  79  94 W7        29.94  HX  90
LEWISBURG      CLOUDY    83  75  76 W6        29.92S HX  90


...WESTERN KENTUCKY...

CITY           SKY/WX    TMP DP  RH WIND       PRES   REMARKS
PADUCAH        CLEAR     79  61  53 NW7       29.92R
FORT CAMPBELL  CLEAR     79  65  62 NW8       29.90R


...CENTRAL ARKANSAS...

CITY           SKY/WX    TMP DP  RH WIND       PRES   REMARKS
LITTLE ROCK    CLOUDY    85  76  74 SW7       29.97F HX  94


SKY/WX REPORTED AS FAIR MEANS FEW OR NO CLOUDS BELOW
12 THOUSAND FEET.




USA.gov is the U.S. government's official web portal to all federal, state and local government web resources and services.